Flag for India Weather past 2 weeks in Maraimalai Nagar, Tamil Nadu, India

Now
88 °F

Partly sunny.


Feels Like: 98 °F
Forecast: 73 / 92 °F
Wind: 2 mph from North

Location: Madras / Minambakkam

Current Time: Oct 1, 2014 at 12:00:25 PM

Latest Report: Oct 1, 2014 at 10:40 AM


Visibility: 2 mi

Pressure: 29.89 "Hg

Humidity: 66%

Dew point: 75 °F

Location of Maraimalai NagarLocation

Historic Weather in Maraimalai Nagar — Graph

°F

Maraimalai Nagar temperature yesterday

Maximum temperature yesterday: 91 °F (at 11:10 AM)
Minimum temperature yesterday: 81 °F (at 2:10 AM)
Average temperature yesterday: 85 °F

Past Weeks' High & Low Weather Summary

 TemperatureHumidityPressure
High93 °F (Sep 19, 1:10 PM)100% (Sep 22, 4:10 AM)29.92 "Hg (Sep 22, 4:10 AM)
Low75 °F (Sep 29, 3:40 AM)49% (Sep 19, 1:10 PM)29.56 "Hg (Sep 16, 3:40 PM)
Average84 °F77%29.75 "Hg
* Reported Sep 16 10:40 AM — Oct 1 10:40 AM, Maraimalai Nagar, Weather by CustomWeather, © 2014

Note: Actual official high and low records may vary slightly from our data, if they occured in-between our weather recording intervals... More about our weather records

Advertising

Maraimalai Nagar weather history for previous 24 hours

 ConditionsComfort  
Time TempWeatherWind HumidityBarometerVisibility
10:40 AM
Oct 1
88 °FPartly sunny.2 mph66%29.89 "Hg2 mi
10:10 AM88 °FPartly sunny.3 mph70%29.89 "Hg2 mi
9:40 AM86 °FScattered clouds.6 mph75%29.89 "Hg3 mi
9:10 AM88 °FScattered clouds.No wind70%29.89 "Hg3 mi
8:40 AM86 °FScattered clouds.6 mph79%29.89 "Hg3 mi
8:10 AM84 °FScattered clouds.6 mph84%29.89 "Hg3 mi
7:40 AM84 °FHaze.3 mph84%29.89 "Hg3 mi
7:10 AM82 °FHaze.No wind89%29.86 "Hg3 mi
6:40 AM81 °FHaze.No wind94%29.86 "Hg3 mi
6:10 AM79 °FHaze.No wind94%29.83 "Hg3 mi
5:40 AM79 °FPassing clouds.No wind94%29.83 "Hg3 mi
5:10 AM79 °FPassing clouds.No wind94%29.83 "Hg3 mi
4:40 AM79 °FHaze.No wind94%29.83 "Hg3 mi
4:10 AM79 °FHaze.No wind94%29.80 "Hg3 mi
3:10 AM81 °FPassing clouds.No wind94%29.83 "Hg4 mi
2:40 AM81 °FPassing clouds.3 mph94%29.83 "Hg4 mi
2:10 AM81 °FPassing clouds.3 mph94%29.83 "Hg4 mi
1:40 AM81 °FPassing clouds.No wind89%29.83 "Hg4 mi
1:10 AM81 °FPassing clouds.No wind89%29.83 "Hg4 mi
12:40 AM82 °FPassing clouds.No wind84%29.83 "Hg4 mi
12:10 AM84 °FPassing clouds.3 mph79%29.86 "Hg4 mi
11:40 PM
Sep 30
84 °FPassing clouds.5 mph79%29.86 "Hg4 mi
11:10 PM84 °FPassing clouds.3 mph79%29.86 "Hg4 mi
10:40 PM84 °FPassing clouds.2 mph79%29.86 "Hg4 mi
10:10 PM84 °FPassing clouds.3 mph79%29.89 "Hg4 mi
9:40 PM84 °FPassing clouds.2 mph79%29.86 "Hg4 mi
9:10 PM84 °FPassing clouds.8 mph79%29.86 "Hg4 mi
8:40 PM84 °FPassing clouds.7 mph79%29.83 "Hg4 mi
8:10 PM84 °FPassing clouds.6 mph79%29.83 "Hg4 mi
7:40 PM84 °FPassing clouds.7 mph79%29.83 "Hg4 mi
7:10 PM86 °FPassing clouds.7 mph75%29.80 "Hg4 mi
6:40 PM86 °FPassing clouds.8 mph75%29.80 "Hg4 mi
6:10 PM86 °FScattered clouds.10 mph75%29.80 "Hg4 mi
5:40 PM86 °FScattered clouds.7 mph70%29.80 "Hg4 mi
5:10 PM88 °FScattered clouds.9 mph70%29.77 "HgN/A
4:40 PM88 °FScattered clouds.12 mph70%29.77 "HgN/A
4:10 PM90 °FScattered clouds.9 mph67%29.77 "HgN/A
3:40 PM90 °FScattered clouds.9 mph63%29.77 "HgN/A
3:10 PM90 °FScattered clouds.9 mph67%29.77 "HgN/A
2:40 PM91 °FScattered clouds.10 mph59%29.77 "HgN/A
2:10 PM90 °FScattered clouds.8 mph63%29.77 "HgN/A
1:40 PM91 °FScattered clouds.10 mph63%29.80 "Hg6 mi
1:10 PM91 °FScattered clouds.8 mph63%29.80 "Hg4 mi
12:40 PM91 °FScattered clouds.9 mph63%29.80 "Hg4 mi
12:10 PM91 °FScattered clouds.9 mph63%29.83 "Hg4 mi
Weather by CustomWeather, © 2014

See weather overviewHow to use our weather pages